Davenport, IA

12:25 AM CDT on April 30, 2017 (GMT -0500)
Davenport Municipal

Weather History for KDVN - December, 2012

Change the Weather History Date:

Saturday, December 15, 2012

  Actual Average Record
Temperature  
Mean Temperature 45 °F 25 °F  
Max Temperature 49 °F 33 °F 54 °F (2011)
Min Temperature 40 °F 17 °F -10 °F (1951)
Degree Days  
Heating Degree Days 20 40  
Month to date heating degree days 382 560  
Since 1 July heating degree days 1803 1908  
Cooling Degree Days 0 0  
Month to date cooling degree days 0 0  
Year to date cooling degree days 1114 786  
Moisture  
Dew Point 43 °F    
Average Humidity 91    
Maximum Humidity 96    
Minimum Humidity 86    
Precipitation  
Precipitation 0.56 in 0.07 in 1.67 in (1971)
Month to date precipitation 0.94 1.02  
Year to date precipitation 28.64 35.32  
Snow  
Snow 0.00 in - - ()
Month to date snowfall T  
Since 1 July snowfall T  
Snow Depth 0.00 in    
Sea Level Pressure  
Sea Level Pressure 29.62 in    
Wind  
Wind Speed 14 mph (South)    
Max Wind Speed 25 mph    
Max Gust Speed 32 mph    
Visibility 4 miles    
Events Rain    
T = Trace of Precipitation, MM = Missing Value Source: NWS Daily Summary

Daily Weather History Graph

Daily Weather History Graph

Search for Another Location

Airport or City:

Trip Planner

Search our weather history database for the weather conditions in past years. The results will help you decide how hot, cold, wet, or windy it might be!

Date:

Astronomy

Dec. 15, 2012 Rise Set
Actual Time 7:22 AM CST 4:33 PM CST
Civil Twilight 6:50 AM CST 5:04 PM CST
Nautical Twilight 6:16 AM CST 5:39 PM CST
Astronomical Twilight 5:42 AM CST 6:13 PM CST
Moon 9:13 AM CST (12/15) 7:39 PM CST (12/15)
Length of Visible Light 10h 13m
Length of Day
9h 10m
Waxing Crescent, 8% of the Moon is Illuminated
Dec 15
Waxing Crescent
Dec 19
First Quarter
Dec 28
Full
Jan 4
Last Quarter
Jan 11
New

Hourly Weather History & Observations

Time (CST) Temp. Windchill Dew Point Humidity Pressure Visibility Wind Dir Wind Speed Gust Speed Precip Events Conditions
12:52 AM 42.1 °F 35.2 °F 39.0 °F 89% 29.91 in 4.0 mi SE 12.7 mph - 0.10 in Rain Light Rain
1:52 AM 41.0 °F 33.5 °F 37.9 °F 89% 29.88 in 6.0 mi SE 13.8 mph - 0.07 in Rain Light Rain
2:52 AM 41.0 °F 34.3 °F 37.0 °F 86% 29.88 in 7.0 mi SE 11.5 mph - 0.01 in Rain Light Rain
3:52 AM 39.9 °F 31.8 °F 37.0 °F 89% 29.83 in 5.0 mi SE 15.0 mph - 0.05 in Rain Light Rain
4:52 AM 39.9 °F 31.1 °F 37.9 °F 93% 29.78 in 7.0 mi SE 17.3 mph - 0.03 in Rain Light Rain
5:03 AM 41.0 °F 32.2 °F 37.4 °F 87% 29.76 in 8.0 mi SSE 18.4 mph - 0.00 in   Overcast
5:32 AM 41.0 °F 32.2 °F 37.4 °F 87% 29.73 in 2.5 mi SE 18.4 mph - 0.04 in Rain Rain
5:52 AM 41.0 °F 31.6 °F 39.0 °F 93% 29.71 in 2.5 mi SE 20.7 mph 27.6 mph 0.09 in Rain Rain
6:11 AM 41.0 °F 31.4 °F 39.2 °F 93% 29.69 in 4.0 mi SSE 21.9 mph 27.6 mph 0.03 in Rain Light Rain
6:25 AM 42.8 °F 34.0 °F 39.2 °F 87% 29.70 in 6.0 mi SSE 20.7 mph 28.8 mph 0.03 in Rain Light Rain
6:52 AM 42.1 °F 33.3 °F 39.9 °F 92% 29.71 in 7.0 mi SSE 19.6 mph - 0.03 in Rain Light Rain
7:12 AM 42.8 °F 34.3 °F 39.2 °F 87% 29.68 in 1.8 mi SSE 19.6 mph 29.9 mph 0.04 in Rain Heavy Rain
7:29 AM 42.8 °F 34.5 °F 41.0 °F 93% 29.67 in 2.5 mi SE 18.4 mph - 0.06 in Rain Light Rain
7:40 AM 42.8 °F 35.1 °F 41.0 °F 93% 29.67 in 4.0 mi SSE 16.1 mph 24.2 mph 0.07 in Rain Light Rain
7:52 AM 43.0 °F 35.1 °F 41.0 °F 93% 29.68 in 4.0 mi SSE 17.3 mph - 0.08 in Rain Rain
8:18 AM 42.8 °F 35.4 °F 41.0 °F 93% 29.65 in 1.8 mi SSE 15.0 mph - 0.03 in Rain Light Rain
8:52 AM 44.1 °F 36.8 °F 42.1 °F 93% 29.65 in 1.2 mi SSE 16.1 mph 23.0 mph 0.03 in Rain Light Rain
9:09 AM 44.6 °F 38.1 °F 42.8 °F 93% 29.63 in 3.0 mi SSE 13.8 mph - 0.00 in   Overcast
9:52 AM 46.0 °F 39.0 °F 44.1 °F 93% 29.63 in 4.0 mi South 17.3 mph 23.0 mph 0.00 in   Overcast
10:13 AM 46.4 °F 39.5 °F 44.6 °F 93% 29.61 in 2.0 mi South 17.3 mph - N/A   Overcast
10:24 AM 46.4 °F 39.8 °F 44.6 °F 93% 29.61 in 4.0 mi South 16.1 mph - 0.00 in Rain Light Rain
10:52 AM 46.9 °F - 44.1 °F 90% 29.60 in 5.0 mi South 12.7 mph - 0.00 in   Overcast
11:52 AM 46.9 °F - 45.0 °F 93% 29.56 in 3.0 mi South 13.8 mph - 0.00 in   Overcast
11:59 AM 46.4 °F 40.4 °F 44.6 °F 93% 29.55 in 1.8 mi South 13.8 mph 20.7 mph 0.01 in Rain Light Rain
12:18 PM 46.4 °F 40.4 °F 44.6 °F 93% 29.54 in 2.5 mi South 13.8 mph - 0.03 in Rain Light Rain
12:31 PM 46.4 °F 40.7 °F 46.4 °F 100% 29.53 in 1.8 mi South 12.7 mph - 0.05 in Rain Light Rain
12:40 PM 48.2 °F - 46.4 °F 93% 29.53 in 2.0 mi South 11.5 mph - 0.05 in Rain Light Rain
12:42 PM 46.4 °F 41.1 °F 46.4 °F 100% 29.53 in 1.8 mi South 11.5 mph - 0.06 in Rain Rain
12:52 PM 46.9 °F - 46.0 °F 97% 29.53 in 1.2 mi South 11.5 mph - 0.07 in Rain Light Rain
1:03 PM 46.4 °F 41.9 °F 46.4 °F 100% 29.52 in 3.0 mi South 9.2 mph - 0.01 in Rain Light Rain
1:52 PM 48.0 °F - 46.0 °F 93% 29.52 in 5.0 mi SSW 13.8 mph - 0.01 in   Overcast
2:02 PM 48.2 °F - 46.4 °F 93% 29.51 in 5.0 mi SSW 12.7 mph - N/A   Overcast
2:18 PM 48.2 °F - 46.4 °F 93% 29.51 in 6.0 mi SSW 10.4 mph - N/A   Overcast
2:30 PM 48.2 °F - 46.4 °F 93% 29.51 in 7.0 mi SSW 11.5 mph - N/A   Overcast
2:52 PM 48.9 °F - 46.0 °F 90% 29.53 in 7.0 mi SSW 13.8 mph - N/A   Overcast
3:52 PM 48.9 °F - 46.0 °F 90% 29.54 in 7.0 mi SW 9.2 mph - N/A   Overcast
4:10 PM 48.2 °F - 46.4 °F 93% 29.54 in 7.0 mi SW 8.1 mph - N/A   Overcast
4:52 PM 48.9 °F - 46.0 °F 90% 29.57 in 7.0 mi SSW 8.1 mph - N/A   Overcast
5:52 PM 48.0 °F - 46.0 °F 93% 29.57 in 6.0 mi SSW 8.1 mph - N/A   Overcast
6:52 PM 48.0 °F - 46.0 °F 93% 29.59 in 2.5 mi SSW 10.4 mph - 0.01 in Rain Light Rain
7:10 PM 48.2 °F - 46.4 °F 93% 29.58 in 4.0 mi SSW 10.4 mph - 0.01 in   Overcast
7:41 PM 48.2 °F - 46.4 °F 93% 29.57 in 3.0 mi SW 10.4 mph - 0.01 in   Overcast
7:52 PM 48.0 °F - 46.0 °F 93% 29.58 in 2.5 mi SW 10.4 mph - 0.01 in Rain Light Rain
7:55 PM 48.2 °F - 46.4 °F 93% 29.57 in 3.0 mi SW 9.2 mph - 0.00 in Rain Light Rain
8:20 PM 48.2 °F - 46.4 °F 93% 29.57 in 5.0 mi SW 10.4 mph - 0.00 in   Overcast
8:52 PM 48.0 °F - 46.0 °F 93% 29.57 in 7.0 mi SW 12.7 mph - 0.00 in   Overcast
9:38 PM 48.2 °F - 44.6 °F 87% 29.57 in 7.0 mi SW 13.8 mph - N/A   Overcast
9:52 PM 48.0 °F - 45.0 °F 89% 29.58 in 7.0 mi SW 12.7 mph - N/A   Overcast
10:52 PM 46.9 °F - 44.1 °F 90% 29.59 in 6.0 mi SW 15.0 mph - N/A   Overcast
11:52 PM 46.0 °F 40.2 °F 44.1 °F 93% 29.60 in 5.0 mi WSW 12.7 mph - 0.00 in   Overcast